User: anonymous   Login
Location: S�tio Afonso Gruber
(26.1760°S, 49.5250°W)
Time: 02:04:48
(UTC+00:00)
Language:

GOES 2 Rocket - Orbit

View from above orbital plane
View from above orbital plane
View from above satellite
View from above satellite

Ground track
Ground track

The orbit data is extracted from the following two-line orbital elements,

1 10062U 77048B   20220.67289503  .00000144  00000-0  21461-4 0  9998
2 10062  28.4157  79.8774 0736262  62.0458 305.2644 13.36684249100552
Epoch (UTC): 07 August 2020 16:08:58
Eccentricity: 0.0736262
inclination: 28.4157°
perigee height: 569 km
apogee height: 1674 km
right ascension of ascending node: 79.8774°
argument of perigee: 62.0458°
revolutions per day: 13.36684249
mean anomaly at epoch: 305.2644°
orbit number at epoch: 10055

The dashed part of the orbit path shows where the satellite is in the earth's shadow,  

DLR